Wind_Speed
26 15 12 6 6 5 6 6 7 7 8 9 10 12 13 13 13 14 14 15 15 16 18 19 20 22 24 24 24 24 23 21 20 15 14 11 8 10 19 11 18 22 27 28 17 14 26
24 14 12 7 6 5 5 5 5 5 6 6 7 6 6 6 5 5 6 8 9 9 11 12 12 13 15 15 18 19 23 25 24 21 17 14 12 22 31 12 15 26 32 31 26 30 14
21 15 11 8 5 5 5 5 4 3 4 3 5 4 4 5 7 8 9 10 10 10 11 11 11 11 11 11 12 13 15 19 26 28 23 19 17 23 32 21 27 25 33 39 35 29 14
20 14 10 7 6 5 4 4 3 2 5 3 5 7 6 7 10 11 11 12 12 11 9 8 8 9 9 10 10 12 12 14 22 28 29 25 22 26 32 24 11 18 29 36 36 33 24
17 12 8 6 6 4 3 1 5 5 4 4 5 10 10 12 12 12 13 12 14 15 14 13 12 10 6 5 6 8 12 13 17 23 30 31 24 28 29 22 13 19 29 34 39 38 28
13 10 7 6 5 4 2 5 5 5 3 3 7 9 10 9 8 10 10 10 11 14 15 14 13 13 12 9 8 7 9 13 14 17 25 33 32 33 34 26 20 20 13 29 35 30 33
11 8 5 7 5 4 4 5 5 2 5 6 6 7 10 12 9 8 9 10 10 11 11 12 12 12 12 12 10 12 13 13 12 14 19 29 39 36 37 38 23 21 16 22 36 34 34
11 8 7 9 6 4 5 5 2 7 9 4 4 7 8 8 7 7 8 9 9 9 10 10 9 10 13 16 18 21 16 9 12 11 16 25 36 40 38 36 30 25 21 11 31 35 25
11 9 10 10 6 6 5 3 9 11 7 3 4 6 8 7 7 9 10 11 11 10 9 8 9 11 9 10 18 23 27 12 7 11 12 19 31 40 42 41 33 24 28 33 27 31 32
10 10 12 9 8 6 4 11 11 10 5 2 6 7 6 9 10 11 12 13 14 13 8 9 10 10 12 12 11 18 22 26 14 7 11 12 24 36 45 44 46 36 31 24 35 37 39
12 12 13 11 9 6 10 11 8 5 3 3 4 5 8 10 13 14 15 14 15 17 16 14 13 15 18 18 17 8 15 19 24 22 8 11 15 29 41 49 46 42 41 35 37 39 41
15 16 14 13 10 11 9 8 6 3 1 3 4 5 9 13 15 16 17 18 17 17 19 21 16 17 17 16 18 16 13 12 17 19 22 13 12 18 33 43 47 47 44 47 40 43 40
16 16 15 13 11 11 7 5 4 3 0 3 8 11 14 16 19 21 22 23 20 19 19 21 21 17 18 16 17 18 17 15 16 14 16 20 16 14 20 34 43 50 50 49 47 47 47
17 17 15 12 13 9 7 5 4 2 1 7 11 15 18 19 21 22 22 23 22 21 19 19 21 22 17 16 15 17 16 15 14 12 13 15 18 18 15 23 35 46 49 51 53 51 49
18 17 15 13 11 8 6 6 3 3 6 10 14 18 20 21 22 24 24 24 24 22 22 23 22 22 23 22 20 20 16 16 14 14 13 15 14 18 20 17 26 34 44 47 51 55 50
16 17 15 13 10 9 6 5 6 8 10 14 19 21 22 23 24 25 25 25 26 26 27 27 28 28 28 25 26 25 24 22 20 19 15 14 18 16 20 22 19 28 34 43 47 52 50
15 15 13 11 11 10 8 8 10 14 16 19 21 27 25 28 28 28 28 27 28 30 32 34 34 36 34 34 33 33 32 30 28 26 27 27 22 19 22 24 24 22 30 36 44 49 49
14 13 11 12 12 8 8 11 14 17 21 23 25 28 31 31 30 30 29 31 31 33 35 38 40 41 41 40 40 41 39 38 38 33 29 32 32 26 24 23 29 24 21 32 38 45 48
13 13 11 10 8 9 11 14 19 22 25 28 31 31 36 32 33 33 34 37 40 41 43 43 43 46 45 47 47 48 46 45 44 36 30 31 34 33 27 28 28 27 26 26 36 37 43
13 12 11 10 11 15 18 21 24 29 32 34 33 33 34 39 35 37 37 40 45 47 49 50 50 51 52 51 49 48 45 43 40 34 30 30 33 35 33 31 32 34 30 26 29 33 42
12 11 12 14 17 21 24 27 31 34 37 37 36 38 41 37 40 44 47 49 51 54 53 55 53 50 47 43 39 38 38 37 36 34 33 31 33 34 35 36 35 26 28 25 26 35 38
12 14 17 20 23 27 30 34 39 41 37 38 38 44 44 45 47 50 55 55 57 61 57 51 46 45 45 41 40 40 42 41 43 37 32 32 33 33 35 40 38 29 38 32 28 33 37
17 20 23 25 29 34 37 42 43 41 42 42 46 48 51 52 56 59 59 61 62 55 50 49 49 47 47 52 49 47 48 49 49 46 36 36 36 35 35 41 39 38 38 33 28 38 35
22 25 28 32 37 39 44 47 45 45 47 50 53 55 57 63 64 65 65 62 55 51 51 54 54 56 61 59 55 53 53 53 54 47 44 42 42 34 36 42 40 39 39 41 41 35 38
28 32 35 38 43 47 48 46 47 50 53 57 57 60 63 67 67 66 60 55 55 54 59 61 66 65 69 67 64 63 63 56 56 53 50 48 45 41 40 43 43 44 46 39 41 47 40
35 38 42 46 48 47 49 51 53 57 59 60 63 66 67 67 61 58 59 60 61 65 70 73 73 77 78 76 76 71 62 59 56 53 53 51 47 43 43 41 45 49 49 45 46 47 39
42 46 48 46 48 51 54 56 58 61 64 65 66 65 64 63 58 61 63 68 73 74 79 81 80 78 75 72 66 61 54 56 55 53 52 50 46 42 43 38 38 50 55 52 52 46 43
47 47 48 52 54 58 61 63 65 68 67 65 65 64 59 63 63 66 69 72 79 81 85 79 70 64 61 56 54 57 53 54 53 52 50 47 47 44 40 37 37 55 59 56 53 48 44
50 52 55 58 61 64 63 64 63 63 64 63 61 60 63 67 68 72 76 80 86 85 77 66 57 52 52 49 47 47 52 53 51 51 48 47 44 42 37 36 44 54 54 51 46 45 43
Wind_Direction
342 333 331 302 282 269 271 271 275 279 278 282 286 290 291 291 291 290 291 291 289 286 284 283 278 273 271 270 267 263 257 252 247 234 220 216 205 180 155 180 236 233 213 201 183 229 238
332 325 320 304 280 276 283 289 297 293 300 307 307 305 312 322 338 336 323 317 315 310 304 300 294 288 284 280 272 262 254 247 244 233 218 206 194 168 141 116 225 228 220 205 195 210 241
325 317 318 301 276 280 295 316 316 308 323 21 50 22 359 341 331 330 328 326 319 309 303 299 294 291 289 289 286 279 262 246 238 229 221 204 190 168 182 169 215 229 222 210 211 210 219
318 308 312 297 269 284 296 308 301 86 101 56 349 342 8 45 54 46 40 40 36 29 13 348 319 303 293 285 289 273 273 258 238 228 218 208 190 184 197 217 221 238 216 214 212 225 222
305 298 304 282 267 287 289 265 134 115 91 354 34 66 70 56 43 35 33 33 29 26 27 30 30 23 7 329 295 282 266 264 251 233 217 209 185 195 190 188 200 222 220 213 213 214 213
286 288 294 261 262 277 274 143 136 115 43 91 76 61 52 37 24 23 26 36 29 28 26 28 26 22 13 357 343 309 268 259 258 241 223 207 190 204 195 199 203 210 219 218 214 206 208
258 270 263 232 248 253 162 160 133 75 139 114 64 48 36 37 40 28 24 23 21 13 23 29 31 28 23 17 355 332 299 266 250 246 225 210 197 205 214 208 206 214 214 213 210 209 208
241 250 229 213 230 196 171 165 143 138 147 128 45 31 22 25 27 10 7 6 1 9 357 356 7 20 30 34 22 14 355 285 253 246 231 215 202 204 216 214 207 218 208 220 205 211 212
233 230 215 208 205 184 190 198 144 143 147 87 28 5 8 14 8 348 338 338 343 347 342 336 340 341 342 360 16 19 22 6 303 247 244 225 208 202 216 216 207 205 212 229 208 195 197
224 216 205 200 188 182 181 144 143 150 152 49 15 7 360 342 342 334 329 326 328 334 340 328 334 339 343 337 336 14 20 26 12 307 256 245 218 208 213 222 220 200 203 210 207 196 203
210 204 194 185 192 180 157 159 161 162 155 54 24 349 337 339 334 332 329 327 327 320 322 323 318 323 326 333 345 340 14 17 23 25 331 262 238 219 221 218 224 220 214 221 200 199 206
196 187 183 185 191 174 171 161 164 173 301 355 331 326 334 331 322 323 327 329 323 313 317 323 325 318 318 328 333 340 327 325 354 4 14 357 265 239 227 230 225 228 218 212 216 220 222
181 178 182 187 183 176 177 159 168 156 127 326 325 328 324 320 317 318 320 321 321 311 308 317 328 342 329 320 323 335 330 329 332 341 339 352 352 270 243 234 234 232 230 227 226 223 224
174 178 187 188 182 175 168 160 181 169 293 318 327 327 326 326 324 321 320 317 316 312 308 313 328 329 330 343 337 325 325 328 329 324 324 331 338 338 277 247 236 235 233 231 229 227 221
178 186 188 187 176 169 162 168 191 273 308 317 326 327 328 325 322 319 316 315 311 311 309 310 312 317 318 322 325 319 320 311 311 309 304 299 312 320 325 289 251 245 238 235 234 231 226
187 191 193 174 175 182 199 232 275 297 312 323 325 326 328 328 324 318 316 314 308 308 309 309 308 309 310 307 310 312 311 308 295 289 289 287 291 297 303 313 287 250 244 238 237 236 230
183 183 183 186 193 209 232 262 296 312 314 321 326 323 327 323 321 315 312 311 306 305 308 308 309 307 306 305 306 305 305 305 298 290 286 277 271 273 284 294 304 278 247 244 238 238 232
179 182 189 201 213 238 270 286 298 307 311 314 317 319 318 319 320 313 310 307 307 305 304 304 304 303 303 302 302 301 299 298 296 297 284 280 275 269 265 282 285 290 277 247 242 237 235
194 202 208 215 244 277 291 295 303 310 313 312 313 315 310 313 312 310 309 306 304 304 303 300 301 300 298 299 299 297 297 295 295 293 287 275 269 273 259 268 271 284 288 264 247 243 237
206 214 226 253 278 288 294 300 303 307 310 310 311 308 307 306 308 305 305 304 303 302 300 300 297 295 295 297 296 293 295 295 295 290 279 267 270 273 254 249 261 269 273 282 254 242 246
219 241 258 275 286 292 295 298 301 303 304 303 302 302 306 303 305 306 306 302 303 300 297 297 296 295 293 296 293 296 298 299 297 286 281 271 275 271 259 248 257 264 267 268 278 247 243
247 259 273 285 290 294 297 300 302 302 298 297 302 305 301 304 306 304 304 300 301 301 299 296 295 295 295 294 296 295 296 298 292 295 286 276 268 267 264 257 243 253 266 265 275 253 242
263 275 285 290 293 297 299 303 301 298 298 298 302 305 305 304 304 304 304 301 302 300 296 293 295 294 293 292 294 291 289 290 288 290 286 277 271 267 262 256 247 240 249 257 261 258 234
278 283 288 293 297 299 302 302 301 300 300 302 303 303 303 304 307 306 303 300 301 297 293 290 291 294 292 289 288 287 286 284 284 283 277 275 275 272 267 263 252 239 246 254 256 268 247
284 285 291 295 298 301 301 302 301 301 301 300 301 300 304 303 305 304 301 301 299 297 294 292 292 292 293 286 283 281 283 279 274 275 272 271 276 275 272 262 254 240 238 241 232 229 252
290 291 294 297 297 299 300 300 300 301 301 300 301 302 302 302 304 299 300 301 301 297 296 295 294 293 288 284 282 279 275 269 267 267 269 269 272 274 274 259 254 240 232 232 236 239 255
292 295 297 298 299 300 300 299 299 298 299 301 302 300 300 301 303 301 301 302 301 301 301 301 296 290 286 281 278 272 265 258 259 261 266 266 267 270 271 260 240 224 225 224 236 240 250
294 295 297 299 300 299 298 298 298 299 299 300 303 301 302 303 305 303 304 303 304 306 303 301 294 288 282 277 270 264 258 255 254 259 262 261 261 266 263 255 228 220 227 225 226 240 252
295 297 298 297 298 299 300 302 304 304 304 305 305 305 304 304 306 307 307 307 308 307 305 300 294 287 282 274 264 260 250 248 250 253 255 258 264 266 257 236 223 217 223 230 229 235 249
Height
10919 10917 10916 10916 10916 10916 10915 10914 10914 10914 10914 10913 10913 10913 10912 10912 10911 10910 10909 10909 10908 10908 10908 10908 10909 10910 10910 10911 10912 10913 10915 10917 10919 10922 10923 10924 10926 10926 10931 10937 10940 10940 10944 10949 10953 10956 10949
10917 10915 10914 10914 10914 10914 10914 10913 10913 10913 10912 10912 10911 10911 10910 10909 10909 10908 10907 10906 10906 10905 10905 10905 10905 10905 10904 10905 10905 10906 10907 10910 10912 10916 10918 10921 10923 10926 10927 10930 10926 10933 10936 10944 10946 10941 10941
10915 10914 10912 10912 10913 10913 10913 10912 10912 10912 10911 10911 10910 10910 10910 10909 10908 10907 10906 10905 10904 10903 10903 10902 10902 10902 10901 10900 10900 10900 10900 10901 10903 10907 10912 10916 10919 10922 10922 10926 10921 10926 10930 10933 10940 10942 10945
10912 10912 10911 10911 10911 10912 10912 10912 10911 10911 10911 10911 10910 10909 10909 10908 10908 10907 10905 10904 10903 10901 10900 10899 10899 10898 10898 10897 10897 10896 10895 10894 10894 10898 10904 10910 10915 10918 10918 10918 10917 10919 10925 10931 10936 10940 10944
10910 10909 10909 10909 10910 10910 10911 10911 10911 10911 10911 10911 10910 10909 10909 10909 10908 10907 10906 10905 10904 10902 10900 10899 10898 10896 10895 10895 10893 10892 10891 10889 10888 10891 10897 10903 10912 10911 10911 10911 10912 10914 10918 10924 10928 10934 10940
10906 10907 10907 10908 10909 10909 10909 10910 10911 10911 10911 10911 10910 10910 10910 10909 10908 10908 10906 10905 10904 10903 10901 10899 10898 10896 10894 10893 10891 10888 10886 10884 10883 10885 10890 10898 10906 10905 10908 10911 10913 10913 10915 10919 10922 10926 10932
10903 10904 10905 10906 10907 10908 10909 10909 10910 10911 10911 10911 10911 10911 10910 10909 10909 10908 10907 10906 10905 10903 10902 10900 10898 10897 10895 10892 10889 10886 10882 10880 10879 10880 10883 10889 10897 10900 10901 10905 10910 10907 10916 10914 10919 10922 10926
10900 10902 10902 10904 10905 10906 10907 10908 10909 10909 10911 10912 10911 10910 10910 10909 10908 10908 10907 10905 10904 10903 10901 10900 10898 10897 10895 10892 10889 10884 10878 10875 10875 10876 10878 10881 10888 10893 10895 10899 10905 10909 10912 10910 10914 10920 10925
10897 10899 10900 10902 10903 10905 10906 10907 10908 10909 10911 10911 10911 10910 10909 10908 10908 10907 10906 10904 10903 10902 10900 10899 10897 10895 10893 10892 10889 10884 10879 10874 10872 10873 10873 10876 10881 10886 10886 10890 10898 10903 10907 10907 10910 10913 10917
10895 10897 10899 10901 10903 10904 10905 10906 10908 10909 10910 10911 10910 10909 10908 10907 10906 10905 10904 10903 10901 10900 10899 10898 10896 10893 10892 10890 10888 10885 10881 10877 10872 10871 10871 10872 10874 10878 10879 10881 10889 10897 10900 10903 10903 10906 10910
10893 10895 10897 10900 10901 10903 10904 10906 10907 10909 10909 10909 10909 10908 10908 10906 10905 10903 10902 10901 10899 10897 10896 10895 10894 10892 10889 10887 10885 10883 10881 10878 10875 10871 10869 10869 10870 10873 10873 10876 10881 10888 10893 10899 10900 10902 10906
10890 10893 10896 10898 10900 10902 10904 10905 10906 10908 10908 10908 10908 10907 10906 10904 10902 10901 10899 10897 10896 10895 10893 10890 10890 10888 10886 10883 10881 10880 10879 10877 10875 10872 10870 10868 10867 10868 10870 10869 10874 10876 10885 10892 10895 10895 10900
10889 10892 10895 10898 10899 10901 10903 10904 10905 10906 10906 10906 10906 10905 10903 10902 10900 10898 10896 10893 10893 10891 10890 10888 10884 10883 10881 10880 10878 10876 10875 10874 10873 10871 10868 10866 10864 10863 10865 10867 10868 10870 10876 10883 10890 10894 10895
10888 10891 10894 10896 10898 10900 10902 10903 10904 10905 10905 10905 10904 10902 10901 10898 10896 10893 10890 10888 10887 10885 10884 10884 10882 10878 10877 10876 10874 10873 10872 10870 10869 10867 10866 10864 10862 10860 10859 10860 10860 10861 10867 10874 10878 10884 10889
10888 10891 10893 10896 10898 10900 10901 10902 10903 10903 10902 10902 10901 10899 10897 10895 10892 10889 10886 10884 10881 10879 10878 10877 10876 10875 10872 10870 10870 10868 10867 10866 10864 10862 10861 10860 10859 10857 10856 10853 10853 10854 10857 10862 10865 10868 10878
10887 10890 10893 10896 10898 10899 10900 10900 10900 10900 10899 10899 10897 10895 10893 10890 10888 10884 10882 10880 10875 10874 10872 10871 10868 10867 10866 10865 10863 10862 10860 10858 10858 10857 10855 10854 10852 10852 10851 10849 10847 10847 10848 10850 10853 10855 10869
10886 10889 10892 10895 10897 10897 10897 10897 10897 10896 10895 10895 10894 10890 10889 10885 10882 10879 10876 10875 10872 10868 10865 10863 10860 10858 10857 10854 10854 10853 10851 10850 10850 10849 10848 10846 10844 10845 10843 10843 10842 10840 10840 10841 10844 10847 10856
10886 10889 10891 10893 10894 10895 10895 10895 10894 10893 10891 10889 10889 10886 10880 10880 10877 10874 10871 10867 10866 10864 10861 10858 10853 10850 10847 10845 10843 10841 10840 10839 10837 10839 10838 10835 10835 10836 10834 10835 10834 10834 10832 10832 10833 10837 10844
10885 10888 10889 10891 10892 10892 10891 10891 10889 10887 10885 10883 10881 10879 10874 10874 10871 10868 10865 10861 10857 10855 10851 10848 10845 10840 10836 10834 10833 10828 10827 10825 10824 10826 10826 10825 10822 10823 10824 10824 10824 10825 10824 10823 10825 10830 10835
10883 10885 10886 10887 10888 10887 10886 10885 10883 10881 10878 10876 10874 10871 10869 10863 10863 10860 10857 10853 10847 10843 10839 10836 10832 10829 10825 10822 10819 10816 10814 10812 10811 10812 10812 10813 10812 10811 10812 10812 10813 10815 10816 10816 10817 10820 10819
10881 10882 10882 10883 10882 10881 10880 10878 10876 10874 10871 10868 10865 10861 10858 10857 10852 10847 10844 10840 10837 10830 10828 10823 10818 10814 10812 10810 10806 10805 10801 10801 10798 10799 10800 10802 10801 10798 10798 10802 10803 10806 10804 10806 10810 10808 10811
10878 10878 10878 10877 10876 10874 10873 10871 10867 10864 10861 10857 10856 10851 10848 10843 10841 10837 10832 10826 10821 10815 10810 10806 10806 10801 10797 10797 10796 10795 10791 10789 10785 10788 10789 10788 10790 10788 10789 10786 10793 10795 10796 10796 10797 10796 10799
10873 10873 10872 10871 10870 10867 10865 10862 10858 10854 10850 10848 10844 10840 10833 10830 10827 10822 10816 10810 10805 10799 10795 10790 10789 10787 10786 10780 10784 10782 10778 10778 10774 10773 10777 10776 10776 10778 10778 10774 10780 10787 10784 10789 10786 10789 10790
10868 10867 10865 10864 10861 10858 10855 10851 10847 10843 10839 10835 10831 10826 10821 10814 10811 10804 10797 10792 10787 10784 10782 10773 10772 10771 10767 10766 10767 10765 10763 10762 10757 10761 10760 10763 10762 10766 10767 10763 10770 10774 10775 10778 10783 10785 10786
10861 10860 10858 10855 10852 10848 10844 10840 10836 10832 10827 10821 10817 10812 10806 10798 10796 10784 10778 10775 10771 10767 10762 10758 10752 10753 10748 10742 10742 10746 10743 10745 10740 10742 10744 10745 10748 10751 10752 10750 10755 10760 10760 10768 10772 10769 10774
10853 10851 10848 10845 10841 10837 10832 10828 10824 10819 10814 10808 10802 10797 10790 10781 10782 10768 10762 10758 10754 10748 10740 10737 10733 10727 10717 10717 10714 10717 10723 10720 10723 10723 10724 10727 10730 10735 10734 10737 10737 10740 10749 10756 10756 10761 10765
10843 10840 10837 10833 10829 10825 10820 10815 10810 10804 10799 10792 10786 10780 10772 10764 10762 10756 10750 10739 10732 10725 10717 10709 10702 10693 10687 10684 10687 10689 10696 10698 10702 10705 10706 10709 10714 10718 10716 10719 10723 10724 10727 10741 10747 10754 10754
10831 10828 10825 10821 10817 10812 10807 10801 10795 10788 10781 10775 10768 10762 10756 10747 10744 10736 10729 10719 10709 10702 10690 10678 10667 10663 10658 10659 10660 10663 10671 10675 10681 10687 10689 10693 10696 10700 10702 10705 10707 10709 10712 10725 10733 10742 10749
10819 10816 10811 10807 10802 10796 10791 10785 10778 10771 10764 10758 10752 10746 10740 10730 10724 10716 10704 10694 10683 10671 10659 10648 10643 10639 10636 10637 10638 10641 10647 10655 10663 10666 10672 10676 10683 10684 10687 10689 10690 10698 10707 10718 10727 10736 10742